CW5920 Weather Reports


time (UTC)temp
C
wind
direction
speed
KPH
gust
KPH
rain 1hr
cm
rain 24hr
cm
rain mn
cm
humidity
%
barometer
mb
20260904172516 34 180 3.2 14.5 0.00 0.03 0.00 52 1014.6
20260904171516 34 158 6.4 27.4 0.00 0.03 0.00 55 1014.8
20260904170536 33 158 3.2 17.7 0.00 0.03 0.00 56 1015.0
20260904165556 33 180 1.6 16.1 0.00 0.03 0.00 56 1014.8
20260904164516 32 203 1.6 9.7 0.00 0.03 0.00 56 1014.9
20260904163536 32 158 4.8 16.1 0.00 0.03 0.00 61 1015.0
20260904162536 32 158 1.6 9.7 0.00 0.03 0.00 63 1015.0
20260904161516 31 158 4.8 19.3 0.00 0.03 0.00 62 1015.1
20260904160516 31 158 4.8 14.5 0.00 0.03 0.00 67 1014.9
20260904155516 31 158 1.6 16.1 0.00 0.03 0.00 67 1014.9
20260904154556 30 158 3.2 16.1 0.00 0.03 0.00 70 1014.8
20260904153516 30 180 1.6 14.5 0.00 0.03 0.00 72 1014.9
20260904152516 29 158 3.2 16.1 0.00 0.03 0.00 76 1014.7
20260904151516 28 158 4.8 25.7 0.00 0.03 0.00 78 1014.7
20260904150536 27 158 1.6 16.1 0.00 0.03 0.00 86 1014.6
20260904145536 27 158 6.4 16.1 0.00 0.03 0.00 90 1014.7
20260904144516 26 135 6.4 12.9 0.00 0.03 0.00 91 1014.7
20260904143516 26 135 8.0 14.5 0.00 0.03 0.00 92 1014.8
20260904142536 26 113 8.0 16.1 0.00 0.03 0.00 92 1014.8
20260904141516 26 113 8.0 14.5 0.00 0.03 0.00 93 1014.6
20260904140516 26 113 4.8 11.3 0.00 0.03 0.00 93 1014.7
20260904135516 26 113 6.4 11.3 0.00 0.03 0.00 93 1014.5
20260904134516 25 135 3.2 9.7 0.00 0.03 0.00 94 1014.5
20260904133516 25 135 4.8 11.3 0.00 0.03 0.00 94 1014.4
20260904132516 25 135 4.8 12.9 0.00 0.03 0.00 94 1014.3
20260904131516 25 135 3.2 11.3 0.00 0.03 0.00 94 1014.2
20260904130516 25 90 4.8 9.7 0.00 0.03 0.00 94 1014.1
20260904125516 25 113 3.2 9.7 0.00 0.03 0.00 94 1014.0
20260904124516 25 0.0 4.8 0.00 0.03 0.00 94 1013.9
20260904123516 25 135 3.2 8.0 0.00 0.03 0.00 94 1013.8
20260904122516 25 113 1.6 4.8 0.00 0.03 0.00 94 1013.8
20260904121516 25 0.0 4.8 0.00 0.03 0.00 94 1013.7
20260904120516 25 135 3.2 11.3 0.00 0.03 0.00 94 1013.5
20260904115515 25 135 3.2 6.4 0.00 0.03 0.00 93 1013.4
20260904114536 25 135 4.8 8.0 0.00 0.03 0.00 93 1013.6
20260904113516 25 113 1.6 4.8 0.00 0.03 0.00 93 1013.5
20260904112516 25 113 1.6 4.8 0.00 0.03 0.00 93 1013.5
20260904111516 25 0.0 0.0 0.00 0.03 0.00 93 1013.4
20260904110516 25 113 3.2 9.7 0.00 0.03 0.00 93 1013.2
20260904105516 25 135 4.8 12.9 0.00 0.03 0.00 93 1013.2
20260904104516 25 135 3.2 6.4 0.00 0.03 0.00 93 1013.3
20260904103535 25 135 1.6 4.8 0.00 0.03 0.00 93 1013.3
20260904102516 25 135 1.6 6.4 0.00 0.03 0.00 93 1013.2
20260904101515 25 135 1.6 6.4 0.00 0.03 0.00 93 1013.2
20260904100515 25 113 1.6 6.4 0.00 0.03 0.00 93 1013.1
20260904095535 25 90 1.6 6.4 0.00 0.03 0.00 92 1013.2
20260904094516 25 113 4.8 9.7 0.00 0.03 0.00 92 1013.0
20260904093535 25 158 3.2 6.4 0.00 0.03 0.00 92 1012.9
20260904092516 25 135 6.4 11.3 0.00 0.03 0.00 92 1012.9
20260904091516 25 135 6.4 14.5 0.00 0.03 0.00 92 1012.9
20260904090536 25 135 4.8 9.7 0.00 0.03 0.00 92 1013.0
20260904085537 25 135 6.4 14.5 0.00 0.03 0.03 92 1013.0
20260904084516 25 135 4.8 11.3 0.00 0.03 0.03 92 1012.9
20260904083537 25 135 6.4 17.7 0.00 0.03 0.03 92 1012.8
20260904082517 25 158 6.4 16.1 0.00 0.03 0.03 92 1012.7
20260904081517 25 135 8.0 17.7 0.00 0.03 0.03 92 1012.7
20260904080516 25 158 8.0 16.1 0.00 0.03 0.03 92 1012.8
20260904075516 25 135 11.3 17.7 0.00 0.03 0.03 92 1012.8
20260904074517 25 158 8.0 16.1 0.00 0.03 0.03 92 1013.0
20260904073516 25 135 8.0 16.1 0.00 0.03 0.03 92 1013.0
20260904072557 25 135 9.7 17.7 0.00 0.03 0.03 92 1013.1
20260904071517 25 135 9.7 17.7 0.00 0.03 0.03 91 1013.0
20260904070517 25 135 8.0 16.1 0.00 0.03 0.03 91 1012.9
20260904065517 25 135 8.0 14.5 0.00 0.03 0.03 91 1013.0
20260904064517 25 135 3.2 11.3 0.03 0.03 0.03 90 1013.2
20260904063536 25 158 1.6 9.7 0.03 0.03 0.03 90 1013.3
20260904062556 25 135 3.2 12.9 0.03 0.03 0.03 89 1013.2
20260904061517 25 113 4.8 11.3 0.03 0.03 0.03 88 1013.4
20260904060516 25 135 3.2 8.0 0.03 0.03 0.03 87 1013.6
20260904055516 26 135 1.6 11.3 0.03 0.03 0.03 85 1013.3
20260904054516 26 135 14.5 25.7 0.00 0.00 0.00 84 1013.0
20260904053517 26 135 3.2 12.9 0.00 0.00 0.00 83 1013.5
20260904052516 26 0.0 3.2 0.00 0.00 0.00 83 1013.7
20260904051517 26 90 11.3 17.7 0.00 0.00 0.00 83 1013.3
20260904050517 26 113 8.0 19.3 0.00 0.00 0.00 82 1013.1
20260904045537 26 113 11.3 22.5 0.00 0.00 0.00 81 1013.0
20260904044516 26 113 14.5 22.5 0.00 0.00 0.00 80 1013.0
20260904043537 26 113 14.5 22.5 0.00 0.00 0.00 79 1013.0
20260904042516 26 113 12.9 24.1 0.00 0.00 0.00 79 1013.0
20260904041537 26 113 12.9 19.3 0.00 0.00 0.00 78 1013.0
20260904040516 26 113 12.9 20.9 0.00 0.00 0.00 77 1013.0
20260904035516 26 113 8.0 17.7 0.00 0.00 0.00 77 1013.2
20260904034516 26 113 12.9 17.7 0.00 0.00 0.00 76 1013.0
20260904033516 26 113 9.7 17.7 0.00 0.00 0.00 76 1013.0
20260904032536 26 113 14.5 19.3 0.00 0.00 0.00 75 1012.9
20260904031516 27 113 9.7 17.7 0.00 0.00 0.00 74 1012.7
20260904030516 27 113 12.9 22.5 0.00 0.00 0.00 74 1012.7
20260904025516 27 90 11.3 20.9 0.00 0.00 0.00 74 1012.6
20260904024517 27 113 14.5 22.5 0.00 0.00 0.00 73 1012.5
20260904023516 27 113 11.3 17.7 0.00 0.00 0.00 72 1012.4
20260904022516 27 113 9.7 19.3 0.00 0.00 0.00 71 1012.3
20260904021537 27 113 11.3 20.9 0.00 0.00 0.00 70 1012.1
20260904020516 27 113 14.5 20.9 0.00 0.00 0.00 70 1012.0
20260904015536 27 113 17.7 29.0 0.00 0.00 0.00 69 1011.7
20260904014517 28 113 14.5 22.5 0.00 0.00 0.00 69 1011.5
20260904013516 28 113 11.3 19.3 0.00 0.00 0.00 69 1011.5
20260904012556 28 113 12.9 20.9 0.00 0.00 0.00 67 1011.2
20260904011516 28 113 19.3 33.8 0.00 0.00 0.00 65 1011.1
20260904010516 29 113 16.1 27.4 0.00 0.00 0.00 63 1011.1
20260904005516 29 113 14.5 25.7 0.00 0.00 0.00 62 1011.0
20260904004536 30 113 17.7 27.4 0.00 0.00 0.00 62 1011.0
20260904003516 30 113 14.5 22.5 0.00 0.00 0.00 63 1010.9
20260904002516 30 113 17.7 27.4 0.00 0.00 0.00 62 1011.1
20260904001557 30 113 19.3 27.4 0.00 0.00 0.00 62 1011.0
20260904000516 31 113 20.9 29.0 0.00 0.00 0.00 63 1010.9
20260903235516 31 113 20.9 32.2 0.00 0.00 0.00 63 1010.9
20260903234516 32 113 17.7 27.4 0.00 0.00 0.00 62 1010.8
20260903233517 32 113 20.9 29.0 0.00 0.00 0.00 61 1010.7
20260903232516 32 113 17.7 25.7 0.00 0.00 0.00 61 1010.5
20260903231517 32 113 17.7 27.4 0.00 0.00 0.00 62 1010.5
20260903230516 32 113 16.1 25.7 0.00 0.00 0.00 62 1010.5
20260903225516 32 113 16.1 29.0 0.00 0.00 0.00 63 1010.4
20260903224516 32 90 17.7 30.6 0.00 0.00 0.00 63 1010.4
20260903223516 32 113 17.7 27.4 0.00 0.00 0.00 63 1010.5
20260903222516 32 113 14.5 19.3 0.00 0.00 0.00 63 1010.5
20260903221516 32 90 16.1 30.6 0.00 0.00 0.00 64 1010.6
20260903220516 32 113 17.7 24.1 0.00 0.00 0.00 63 1010.6
20260903215516 32 113 16.1 25.7 0.00 0.00 0.00 63 1010.6
20260903214516 32 113 14.5 20.9 0.00 0.00 0.00 64 1010.6
20260903213516 32 113 16.1 25.7 0.00 0.00 0.00 65 1010.6
20260903212516 33 90 14.5 25.7 0.00 0.00 0.00 63 1010.7
20260903211516 33 113 12.9 27.4 0.00 0.00 0.00 64 1010.8
20260903210516 32 113 14.5 25.7 0.00 0.00 0.00 65 1010.8
20260903205516 32 113 16.1 22.5 0.00 0.00 0.00 65 1010.9
20260903204556 32 90 14.5 24.1 0.00 0.00 0.00 68 1011.0
20260903203516 31 113 17.7 25.7 0.00 0.00 0.00 69 1011.2
20260903202516 31 113 16.1 25.7 0.00 0.00 0.00 69 1011.2
20260903201516 31 113 17.7 27.4 0.00 0.00 0.00 68 1011.4
20260903200516 31 113 17.7 25.7 0.00 0.00 0.00 68 1011.4
20260903195516 31 113 16.1 22.5 0.00 0.00 0.00 70 1011.5
20260903194516 31 113 16.1 24.1 0.00 0.00 0.00 70 1011.7
20260903193516 31 135 9.7 20.9 0.00 0.00 0.00 70 1011.9
20260903192516 31 135 17.7 25.7 0.00 0.00 0.00 69 1012.1
20260903191516 31 158 8.0 20.9 0.00 0.00 0.00 70 1012.2
20260903190516 31 135 17.7 25.7 0.00 0.00 0.00 70 1012.2
20260903185516 31 135 19.3 29.0 0.00 0.00 0.00 71 1012.5
20260903184516 31 135 12.9 20.9 0.00 0.00 0.00 71 1012.5
20260903183516 31 113 19.3 27.4 0.00 0.00 0.00 71 1012.7
20260903182516 31 135 19.3 32.2 0.00 0.00 0.00 70 1012.9
20260903181516 31 135 17.7 30.6 0.00 0.00 0.00 68 1012.9
20260903180516 31 135 19.3 27.4 0.00 0.00 0.00 67 1013.0
20260903175516 31 113 19.3 27.4 0.00 0.00 0.00 68 1013.1
20260903174516 31 135 19.3 30.6 0.00 0.00 0.00 69 1013.2
20260903173516 31 135 17.7 29.0 0.00 0.00 0.00 69 1013.4